Вернуться в каталог

STARLINK-32403

АктивенСвязьVLEO
NORAD 61629·PAYLOAD·🇺🇸 United States

Запущен Oct 23, 2024 с Cape Canaveral Space Force Station

Loading…

Ближайшие Пролёты (ближайшие 24 часа)

TLE

СвежийSource: CelesTrak SupGP

Эпоха: Sep 14, 2026, 21:20 UTC

1 61629C 24191J   26257.88937500 -.00024478  00000+0 -88661-3 0  2578
2 61629  42.9994 165.9816 0001212 258.7972  52.5323 15.27589478    12

Отслеживайте STARLINK-32403 в реальном времени с AllMySat

Download on the App Store